Regional Weather Roundup
Issued by NWS

Home | Current Version | Previous Version | Graphics & Text | Print | Product List | Glossary On
Versions: 1 2 3 4 5 6 7 8 9 10 11 12 13 14 15 16 17 18 19 20 21 22 23 24 25 26 27 28 29 30 31 32 33 34 35 36 37 38 39 40 41 42 43 44 45 46 47 48 49 50
426
ASUS43 KTOP 260359
RWRKS

WEATHER ROUNDUP FOR KANSAS
NATIONAL WEATHER SERVICE GOODLAND KS
1100 PM CDT FRI MAY 25 2018

NOTE:  "FAIR" INDICATES FEW OR NO CLOUDS BELOW 12,000 FEET WITH NO
SIGNIFICANT WEATHER AND/OR OBSTRUCTIONS TO VISIBILITY.

KSZ001>006-013>018-027>032-041>047-260500-
NORTHWEST KANSAS

CITY           SKY/WX    TMP DP  RH WIND       PRES   REMARKS
GOODLAND       CLEAR     69  51  52 S10       29.92R
HAYS           CLEAR     73  63  70 S7        29.85R
HILL CITY      CLEAR     77  62  59 S8        29.85R
RUSSELL        CLEAR     72  66  81 S10       29.83R
$$

KSZ061>065-074>080-084>089-260500-
SOUTHWEST KANSAS

CITY           SKY/WX    TMP DP  RH WIND       PRES   REMARKS
DODGE CITY     CLOUDY    73  64  73 S10       29.90R
GARDEN CITY    CLOUDY    73  59  61 SE10      29.90R
GREAT BEND     CLEAR     72  67  84 S8        29.86R
LIBERAL        CLEAR     78  67  68 SE13      29.92R
$$

KSZ066>073-081>083-090>101-260500-
SOUTHEAST KANSAS

CITY           SKY/WX    TMP DP  RH WIND       PRES   REMARKS
CHANUTE        CLEAR     71  69  93 S7        29.86R
COFFEYVILLE    CLOUDY    73  66  78 S3        29.85R
HUTCHINSON     CLEAR     73  67  81 S6        29.84R
MEDICINE LODGE   N/A     75  66  73 SE8       29.86R
NEWTON         CLEAR     71  65  81 S8        29.86R
PARSONS        CLOUDY    69  68  96 CALM      29.87R
WICHITA INTL   CLEAR     72  64  76 S7        29.85R
WICHITA JABRA  CLEAR     73  64  73 S7        29.85R
WICHITA MCCONL CLEAR     72  62  71 SW7       29.85R
WINFIELD       CLEAR     71  62  73 S5        29.87R
$$

KSZ007>012-019>026-033>040-048>060-102>105-260500-
NORTHEAST KANSAS

CITY           SKY/WX    TMP DP  RH WIND       PRES   REMARKS
CONCORDIA      CLEAR     76  66  71 S10       29.80R
EMPORIA        CLEAR     70  65  84 S8        29.83R
LAWRENCE       CLEAR     72  69  90 SE6       29.81R
MANHATTAN      CLEAR     76  65  68 SW8       29.80R
OLATHE IND     CLEAR     71  67  87 S6        29.84R
OLATHE EXE     CLEAR     71  67  87 S5        29.84R
SALINA         CLEAR     73  67  81 S3        29.82R
TOPEKA BILLARD CLEAR     78  69  73 S5        29.81R
TOPEKA FORBES  CLEAR     75  69  81 S6        29.82R
$$




USA.gov is the U.S. government's official web portal to all federal, state and local government web resources and services.